GFSFLT1_sfc_rhum_195.txt.gz
RH
36 40 39 41 47 53 58 64 70 76 72 76 76 77 76 77 77 65 62 66 60 57 55 56 66 69 68 70 72 69 72 63 61
35 36 39 40 46 51 56 58 67 67 69 71 72 70 72 76 75 74 65 71 65 56 69 60 68 68 70 69 68 71 74 86 78
33 37 40 40 43 47 51 51 55 63 70 66 68 68 67 65 67 72 68 69 71 67 69 71 73 70 73 71 70 70 76 82 71
49 43 34 41 43 46 49 50 54 60 70 69 68 66 68 66 64 64 68 65 68 68 67 72 73 72 70 69 69 71 77 79 74
55 58 55 43 42 48 53 56 57 62 67 67 65 67 70 68 66 64 58 64 65 68 70 69 73 72 73 74 71 73 76 74 64
58 61 62 58 43 50 57 59 64 65 69 71 64 66 65 65 63 63 59 58 62 67 70 70 63 71 74 75 71 76 74 74 73
58 60 60 62 64 56 55 62 66 70 68 73 74 67 64 66 64 61 58 60 64 65 69 70 68 69 72 73 70 70 70 69 69
53 54 56 60 62 68 66 63 69 70 67 72 75 76 75 72 70 67 67 68 68 68 70 68 68 69 70 69 63 54 72 70 68
54 56 53 54 62 62 65 73 67 68 69 71 75 78 75 80 80 77 76 75 75 76 75 76 74 73 71 70 55 70 85 77 67
54 53 56 56 60 64 65 67 73 73 70 69 76 79 79 82 84 84 81 78 78 78 79 76 79 75 74 75 72 85 92 91 66
53 54 56 55 56 66 67 67 63 71 75 73 78 80 80 80 84 85 83 82 81 81 77 79 78 76 78 77 74 95 93 94 74
48 50 56 57 54 65 72 73 76 80 78 75 75 77 78 79 79 80 83 85 84 81 81 84 82 76 81 84 81 98 97 95 76
50 48 50 56 57 59 62 65 75 77 80 80 78 74 75 76 78 80 80 83 84 84 81 82 81 77 78 84 86 97 100 97 86
52 53 53 55 57 60 61 66 70 76 74 76 74 80 78 76 77 79 80 82 81 82 88 86 86 86 80 84 82 77 100 100 92
57 57 58 58 62 58 54 62 71 76 78 74 77 76 76 85 84 76 68 83 81 84 83 87 87 89 83 76 85 98 99 100 100
60 60 58 62 65 65 61 60 67 74 75 81 79 78 75 78 79 89 84 83 82 80 84 74 78 81 77 72 91 96 100 100 100
61 60 62 60 67 68 67 64 63 70 74 78 84 79 77 79 83 83 82 90 88 87 83 80 69 74 80 73 91 95 95 93 94
64 65 64 64 68 69 70 68 68 64 69 74 82 80 74 72 65 75 70 81 97 94 79 75 71 70 75 79 89 86 95 95 93
69 71 69 72 72 72 72 70 70 70 69 74 74 71 64 62 60 62 65 94 99 99 100 100 100 100 80 73 93 100 100 100 100
74 74 75 76 76 72 73 74 73 68 73 74 78 77 72 64 74 63 77 98 97 99 100 100 100 100 100 100 99 100 100 100 100

GFSFLT1_sfc_rhum_198.txt.gz
RH
24 26 27 26 30 35 41 48 49 57 62 67 65 64 67 67 65 52 51 56 42 43 41 41 50 58 54 54 58 57 61 50 48
26 26 25 26 28 33 38 42 51 56 59 63 61 56 62 66 64 60 52 55 53 44 51 40 53 56 56 58 57 58 60 48 57
36 34 28 27 27 30 34 34 40 52 52 55 55 53 56 55 57 61 57 58 60 53 51 55 58 60 58 58 61 59 64 55 55
39 42 42 39 30 28 32 34 36 43 49 52 53 51 55 53 52 53 58 56 58 58 55 60 63 66 63 64 61 59 65 69 57
41 42 44 42 33 33 37 38 38 41 49 50 52 52 56 54 53 53 50 55 54 57 60 57 61 63 64 64 59 59 63 65 51
41 44 45 45 44 42 41 44 47 46 51 52 48 52 51 52 51 50 47 50 52 55 59 60 51 59 66 63 59 65 65 66 60
40 42 43 47 48 52 53 51 52 56 53 56 53 50 51 55 52 48 46 47 52 51 57 60 58 57 62 61 62 57 60 59 67
41 43 42 42 49 53 56 60 58 58 56 57 60 60 59 59 59 56 54 54 55 55 56 58 59 59 59 60 55 46 55 57 58
40 41 42 42 44 50 52 56 62 61 58 59 59 67 65 64 68 67 67 67 65 66 64 65 64 61 60 60 46 61 73 65 55
42 41 41 42 41 46 53 52 55 62 68 59 62 68 69 70 72 73 73 70 72 71 71 68 69 65 63 63 61 74 82 82 49
37 38 42 42 36 38 42 44 49 62 61 72 67 68 71 70 73 75 74 74 74 76 70 70 69 67 69 67 62 80 85 89 62
34 36 37 37 36 40 45 45 48 57 62 64 75 67 68 70 71 74 75 77 77 75 72 72 68 66 71 72 68 87 91 90 65
36 35 35 39 41 41 41 44 46 53 58 60 65 78 68 70 74 73 74 75 77 75 72 71 58 66 66 72 70 88 97 92 52
38 39 40 42 44 45 46 45 43 55 56 59 60 74 95 91 76 80 72 73 73 74 73 71 73 74 74 77 71 76 100 100 64
42 43 45 45 48 47 46 46 48 54 59 55 62 68 74 86 79 77 63 78 74 74 74 76 76 79 77 64 72 97 99 100 93
44 45 45 47 49 52 50 51 50 54 58 60 61 67 70 69 75 83 86 83 83 70 74 63 62 57 57 54 50 60 98 99 99
46 44 48 47 53 56 57 55 56 54 55 57 62 65 69 66 65 67 62 77 68 62 60 58 55 50 51 49 49 50 65 75 85
50 51 51 53 61 60 58 57 59 55 55 53 58 58 57 64 63 61 58 59 57 59 61 65 61 51 47 50 85 58 72 71 64
60 60 60 63 70 66 61 58 59 61 59 58 55 53 44 42 48 55 46 46 59 99 99 99 100 100 91 48 85 98 100 100 100
77 72 70 67 74 69 67 64 64 60 64 60 61 59 54 42 47 43 44 45 47 61 94 100 100 100 100 100 87 100 100 100 100

GFSFLT1_sfc_rhum_201.txt.gz
RH
20 20 21 22 25 27 31 37 40 43 55 62 61 61 66 71 64 52 51 54 61 48 42 40 54 52 51 58 54 55 58 52 52
25 22 20 21 22 25 30 34 42 44 53 58 58 54 61 64 64 62 51 63 51 55 66 58 56 53 54 52 53 54 63 52 58
32 31 31 26 22 22 26 29 34 42 49 53 53 52 54 56 57 61 54 56 58 65 68 59 75 53 55 53 57 61 64 56 60
33 35 35 34 30 24 24 26 28 36 46 49 52 51 51 52 52 52 54 49 52 54 56 66 57 59 58 59 58 60 71 67 62
34 36 37 35 36 30 30 30 30 32 42 44 46 49 52 51 51 52 48 53 52 56 60 59 58 62 70 69 62 74 68 66 54
36 37 38 39 39 44 45 40 40 39 40 44 40 46 46 48 47 47 45 50 50 56 62 60 48 57 70 70 63 71 66 71 62
34 37 38 40 42 45 50 53 58 53 47 47 46 43 44 50 49 45 43 47 56 51 60 68 59 56 65 62 63 58 58 59 64
35 35 35 37 41 47 49 55 65 70 67 60 53 55 52 55 56 55 54 55 57 59 61 61 62 62 61 60 56 48 58 56 57
36 36 34 34 34 38 45 50 52 52 67 73 71 73 65 62 65 67 66 65 65 66 65 67 68 65 64 66 46 61 73 67 52
36 34 35 36 36 34 36 39 45 50 56 57 74 80 78 77 74 73 72 70 72 72 73 70 72 70 67 68 65 73 80 78 45
32 32 34 34 31 33 34 33 35 43 49 59 64 81 80 82 83 80 78 76 75 76 73 74 73 72 72 71 64 76 81 84 58
29 29 30 30 29 34 39 39 40 41 46 52 59 66 90 82 83 83 83 82 80 77 76 76 74 72 75 76 71 82 83 84 62
28 28 29 34 35 36 37 41 40 43 43 47 53 58 85 95 85 85 86 85 83 79 84 78 63 68 70 74 74 86 86 85 52
31 33 34 36 38 40 41 41 40 47 48 52 53 55 65 68 89 81 83 87 86 85 86 81 81 77 72 72 74 75 93 94 67
34 35 36 36 40 40 39 41 44 51 57 56 57 56 63 75 80 95 88 91 90 86 90 88 86 88 73 59 73 91 95 96 93
35 36 36 38 45 53 53 48 48 53 61 61 61 62 61 66 85 92 94 93 94 95 92 92 68 60 58 54 53 64 92 100 99
44 44 42 42 54 54 57 62 64 63 64 59 62 63 64 58 63 78 92 92 93 95 95 94 74 57 50 46 45 44 67 88 87
44 45 48 50 57 58 58 58 63 65 63 57 54 58 54 52 45 61 71 92 90 96 94 94 91 48 43 47 44 43 70 88 84
62 65 64 66 68 65 63 68 64 74 67 61 54 52 45 41 34 35 48 71 88 100 100 100 100 100 96 88 98 95 97 94 93
65 63 68 70 66 65 74 71 70 65 75 76 77 72 54 42 39 31 38 61 60 61 73 100 100 100 100 100 100 100 100 100 100

GFSFLT1_sfc_rhum_204.txt.gz
RH
21 27 27 25 29 32 45 48 50 48 66 76 76 74 76 78 77 68 74 68 68 67 63 78 68 70 70 76 79 79 83 79 75
26 26 22 24 26 30 36 40 47 52 66 69 69 65 72 78 77 75 67 74 67 67 78 81 72 68 72 74 76 77 80 75 80
33 32 33 31 29 30 31 30 38 45 56 63 63 61 65 69 71 73 73 78 72 71 73 70 93 85 75 74 74 75 79 77 80
35 36 36 36 34 29 30 27 32 42 51 58 61 60 63 65 66 66 70 67 70 70 72 84 94 97 90 76 76 76 83 81 76
37 39 39 39 42 44 52 47 44 46 50 53 56 59 66 63 65 65 60 67 65 68 76 78 93 93 87 78 78 80 80 79 68
38 39 42 42 42 50 56 58 66 69 63 55 49 56 57 58 58 60 59 61 63 69 72 79 76 79 81 81 77 82 82 84 83
35 38 42 42 46 50 52 61 68 73 70 76 64 52 53 59 58 54 54 58 65 63 77 77 73 80 78 79 75 77 78 83 85
36 36 35 37 41 49 55 59 62 63 66 75 80 85 70 69 64 62 63 64 68 66 73 73 74 77 74 74 72 62 79 82 84
37 37 35 36 37 40 43 49 54 57 60 64 72 86 86 86 79 77 77 77 73 79 73 78 81 74 73 74 56 65 72 75 71
37 33 34 36 37 40 43 45 49 52 58 60 68 76 83 88 87 81 80 77 80 79 80 77 79 78 76 75 74 73 80 77 61
33 32 33 36 32 35 39 36 42 51 52 63 68 72 75 81 85 90 84 82 83 84 85 80 78 78 79 80 72 80 82 83 70
28 29 32 33 31 39 48 47 48 52 55 59 63 66 72 76 84 86 86 87 87 88 87 84 78 76 80 82 77 86 86 88 74
28 28 30 37 38 40 42 50 49 55 54 56 59 61 68 75 84 89 92 88 89 90 88 86 79 77 76 79 79 88 87 85 66
32 32 33 38 40 43 46 48 48 58 59 61 62 64 68 71 82 91 85 95 95 94 90 89 90 87 81 79 80 79 91 88 74
35 37 40 42 47 47 49 51 53 60 66 67 66 68 70 74 76 83 92 93 92 93 97 93 90 91 92 90 78 88 93 91 87
43 43 44 46 48 51 54 56 57 63 69 69 71 71 71 73 72 77 88 94 96 97 95 96 96 97 95 94 91 80 93 95 92
45 45 49 49 58 62 66 64 64 63 66 70 73 73 73 70 69 70 86 94 96 96 97 97 97 98 96 98 95 91 82 94 99
51 54 55 58 64 67 70 68 69 65 67 70 76 76 69 72 59 61 67 85 89 98 91 90 96 96 96 98 97 90 93 90 86
60 64 64 67 73 76 72 72 75 74 77 79 82 71 66 61 53 50 49 50 86 100 97 97 97 98 97 98 100 100 100 100 100
70 68 71 76 81 82 81 81 79 78 80 82 84 88 84 74 63 53 51 47 72 77 95 100 100 100 100 100 100 100 100 100 100

GFSFLT1_sfc_rhum_207.txt.gz
RH
34 38 40 44 47 50 50 52 66 77 87 87 87 88 90 92 90 90 90 86 83 81 67 81 75 88 84 84 86 86 90 90 85
40 44 39 37 42 50 53 56 60 73 83 84 84 84 90 91 90 87 82 85 82 71 87 92 83 89 90 82 89 86 89 90 88
50 49 49 49 51 51 52 50 54 69 76 82 80 78 80 84 88 86 84 90 82 81 79 81 93 96 89 92 91 86 88 89 85
55 55 57 59 60 61 64 63 56 66 72 76 76 73 75 81 83 85 87 85 88 82 88 95 93 92 86 84 86 86 90 87 88
56 56 59 58 62 67 71 77 76 77 72 72 72 71 75 81 81 78 82 84 82 80 92 95 93 91 88 88 83 88 88 88 76
57 56 61 64 67 70 74 77 88 91 88 84 78 70 75 71 77 75 72 76 78 84 89 94 95 95 93 89 69 89 90 88 90
54 58 56 61 63 74 75 75 80 86 86 88 89 90 90 86 71 69 70 66 70 69 89 93 91 92 92 80 73 87 89 90 92
47 48 50 54 58 63 63 62 68 68 79 83 90 92 92 93 92 83 85 86 73 65 77 82 90 90 91 90 85 73 92 92 93
48 47 47 49 50 50 54 57 60 62 71 72 80 86 89 90 91 90 92 91 92 89 69 82 88 88 87 92 72 77 83 86 87
47 47 44 50 49 48 57 57 58 65 66 69 71 82 87 88 90 93 92 88 89 92 93 82 81 76 87 84 87 82 82 83 80
43 43 46 47 49 54 55 54 53 58 61 68 74 80 79 87 91 93 93 93 93 92 93 89 85 77 78 79 74 84 83 84 84
44 46 48 50 51 51 58 62 62 65 67 68 72 74 78 82 88 93 95 96 96 95 95 91 77 83 80 78 75 87 87 89 86
43 43 44 48 50 56 57 58 62 67 70 72 72 72 76 83 88 92 96 94 95 95 95 92 94 89 86 83 76 86 90 93 92
47 47 51 57 60 61 61 67 67 71 73 77 73 73 75 80 84 87 95 95 95 98 97 97 98 96 92 89 87 81 93 94 96
58 58 57 60 65 68 64 67 74 78 81 76 79 79 81 81 87 88 92 97 97 97 96 97 98 98 98 98 97 97 98 96 94
58 60 63 65 71 69 69 71 76 78 80 82 83 84 87 86 82 82 92 94 98 99 98 97 95 96 96 98 99 98 96 95 98
68 64 67 69 74 74 74 73 70 71 81 80 89 88 88 82 77 73 93 96 97 98 98 98 98 98 97 96 98 97 96 94 98
73 76 75 73 77 81 82 79 77 74 71 83 88 89 86 85 76 72 72 81 77 96 92 94 94 97 96 97 99 98 97 98 99
84 82 80 85 85 85 83 82 84 82 80 90 92 93 86 82 76 70 67 67 78 95 95 100 99 97 96 96 97 100 100 100 100
85 85 86 88 89 87 88 88 89 79 82 91 93 96 94 96 92 80 73 69 66 83 96 100 100 100 98 99 97 100 100 100 100